Location: Badger Butte
(44.9311°N, 118.3053°W)
Time: 09:50:15
(UTC+00:00)

Daily predictions for brighter satellites

Satellite Brightness Start Highest point End
(mag) Time Altitude Azimuth Time Altitude Azimuth Time Altitude Azimuth
Cosmos 1725 Rocket 4.3 12:25:35 58° NNE 12:25:35 58° NNE 12:30:35 10° N
Cosmos 2151 4.3 12:36:01 37° ENE 12:36:01 37° ENE 12:39:58 10° SE
USA 234 4.1 12:40:24 10° E 12:46:30 43° NNE 12:48:50 32° NNW
NOSS 3-1 (C) 4.0 12:49:01 39° NW 12:52:20 85° NE 13:00:39 10° SE
COSMO-SKYMED 1 2.9 12:48:53 10° SSE 12:53:10 64° ENE 12:53:20 64° ENE
Cosmos 1538 Rocket 4.0 12:53:48 62° NNW 12:54:44 86° ENE 13:00:05 10° SSE
Genesis I 3.8 12:59:39 54° ESE 12:59:39 54° ESE 13:02:49 10° SE
Ariane Rocket 4.3 12:58:09 10° NNE 13:02:59 41° E 13:07:46 10° SSE
SL-8 R/B 3.5 13:03:31 83° NNW 13:03:40 86° NNE 13:08:29 10° ESE
Cosmos 2233 Rocket 3.9 13:04:36 10° SSW 13:10:49 69° W 13:17:09 10° N
ISS -0.6 13:14:39 12° S 13:14:39 12° S 13:15:04 10° SSE
ATLAS CENTAUR R/B 4.1 13:12:52 17° N 13:14:00 18° NNE 13:18:36 10° ENE
Coronas F rocket 4.5 13:15:05 10° NE 13:16:00 11° ENE 13:16:54 10° E
SeaSat 1 3.2 13:13:04 10° NNE 13:16:40 35° NNW 13:16:40 35° NNW
SL-16 R/B 3.0 13:21:10 31° SW 13:21:10 31° SW 13:25:00 10° SSW
SKYMED 3 4.5 13:18:56 10° S 13:23:12 61° WSW 13:23:44 56° WNW
Cosmos 2346 Rocket 4.5 13:19:30 10° NNW 13:25:26 53° W 13:31:18 10° SSW
DMSP B5D1-3 4.4 13:21:43 10° S 13:26:51 77° WSW 13:31:59 10° NNW
Cosmos 1703 3.7 13:24:07 11° N 13:27:50 60° E 13:31:43 10° SSE
Cosmos 2297 Rocket 3.2 13:29:04 28° NW 13:29:04 28° NW 13:33:16 10° N
Cosmos 968 Rocket 3.6 13:27:04 34° WSW 13:29:00 52° WNW 13:34:10 10° NNE
Cosmos 2034 Rocket 4.4 13:28:51 10° S 13:34:56 64° E 13:41:09 10° NNE
PSLV R/B 4.4 13:34:16 32° SSW 13:35:01 36° S 13:38:09 10° ESE
Meteor 1-28 Rocket 3.0 13:31:19 10° S 13:35:03 68° W 13:36:22 38° NNW
Cosmos 1626 2.8 13:32:08 10° N 13:35:50 56° E 13:39:29 10° SSE
Cosmos 1271 Rocket 2.6 13:34:34 10° SSW 13:38:20 59° WNW 13:42:06 10° N
Cosmos 2058 2.9 13:37:00 30° NNW 13:38:49 57° W 13:42:53 10° S
Cosmos 773 Rocket 4.0 13:37:33 23° NW 13:40:45 58° WSW 13:45:56 10° S
SKYMED 2 4.0 13:37:15 10° SSW 13:41:19 39° W 13:41:58 37° WNW
Cosmos 2227 Rocket 3.7 13:42:32 19° NW 13:42:32 19° NW 13:45:48 10° N
Cosmos 1184 Rocket 3.2 13:41:37 13° N 13:44:33 63° ENE 13:47:50 10° SSE
Cosmos 2112 Rocket 4.2 13:40:15 10° NNW 13:45:36 74° ENE 13:50:56 10° SSE
Cosmos 1340 Rocket 3.0 13:46:21 34° NW 13:47:27 43° W 13:51:12 10° SSW
NOAA 6 4.4 13:43:40 10° N 13:48:29 40° WNW 13:53:17 10° SW
Meteor 1-16 Rocket 4.3 13:44:24 10° SSW 13:49:36 47° WNW 13:54:44 10° N
Meteor 1-11 4.5 13:45:24 10° NNW 13:50:57 47° W 13:56:27 10° SSW
SL-14 R/B 4.2 13:52:38 28° W 13:52:38 28° W 13:55:49 10° SSW
Cosmos 2221 2.5 13:48:43 10° SSW 13:53:00 61° W 13:57:17 10° N
Cosmos 292 Rocket 3.7 13:50:26 14° NNW 13:54:31 69° WSW 13:59:17 10° S
Meteor 2-12 Rocket 4.4 13:49:06 10° SSW 13:55:13 70° W 14:01:24 10° N
Cosmos 1666 Rocket 3.6 13:50:54 10° N 13:55:24 85° E 13:59:53 10° S
Tiangong 2 3.3 13:58:13 10° SSW 14:00:43 22° SSE 14:03:15 10° ESE
Cosmos 1943 3.2 13:55:29 10° NNW 14:01:14 88° WSW 14:06:55 10° SSE
Cosmos 1356 Rocket 3.4 13:57:33 10° NNW 14:01:36 59° W 14:05:42 10° S
CSL-04 DEB 4.5 13:57:55 10° NNE 14:02:19 79° WNW 14:06:37 10° SSW
NOSS 3-1 (A) 4.3 13:57:10 16° NW 14:03:18 53° WSW 14:11:20 10° SSE
SMAP 3.9 13:59:04 10° NNE 14:03:39 53° E 14:08:12 10° S
Cosmos 1464 Rocket 4.0 13:58:13 10° SSW 14:04:28 59° WNW 14:10:39 10° N
Helios 1B rocket 3.3 14:02:38 10° SSE 14:06:37 51° ENE 14:10:36 10° N
ERBS 4.3 14:06:37 15° WSW 14:06:41 15° SW 14:08:39 10° SSW
Cosmos 1777 Rocket 4.3 14:04:58 10° SW 14:09:56 43° WNW 14:14:55 10° N
ATLAS 2AS CENTAUR R/B 3.3 14:04:09 10° NW 14:12:17 70° NE 14:19:53 10° SE
Cosmos 2151 4.3 14:12:41 19° W 14:13:03 19° W 14:16:03 10° SW
Cosmos 2344 4.1 14:07:27 10° SSW 14:15:01 67° ESE 14:23:36 10° NE
CSL-04 Debris 4.1 14:09:41 10° N 14:15:09 67° WNW 14:20:33 10° SSW
SPOT 3 Rocket 4.2 14:14:40 10° NNE 14:19:51 62° ESE 14:25:01 10° S
Cosmos 1908 3.1 14:21:25 10° SSW 14:25:14 69° W 14:29:05 10° N
SJ-12 3.8 14:21:13 10° N 14:25:17 70° WNW 14:29:20 10° SSW
Cosmos 2263 Rocket 2.4 14:20:22 10° SSW 14:26:02 79° ESE 14:31:46 10° NNE
IRS-1A Rocket 4.3 14:20:59 10° N 14:26:53 71° WNW 14:32:38 10° SSW
Cosmos 1470 Rocket 3.7 14:23:41 10° N 14:28:02 78° E 14:32:22 10° SSE
USA 234 3.3 14:22:35 10° SE 14:29:10 84° SW 14:35:47 10° NW
COSMO-SKYMED 1 4.3 14:27:45 10° WSW 14:29:46 13° W 14:30:33 12° WNW
DELTA 2 R/B (1) 4.4 14:27:46 10° WSW 14:33:04 47° S 14:38:23 10° E
CZ-4 R/B 1.5 14:29:31 10° N 14:33:30 57° WNW 14:37:32 10° SSW
Meteor 1-29 3.1 14:31:43 10° SSE 14:35:12 82° ENE 14:38:44 10° N
CZ-2C R/B 2.2 14:30:53 10° N 14:35:27 65° WNW 14:39:58 10° SSW
Cosmos 1726 3.2 14:34:13 10° S 14:37:46 49° E 14:41:23 10° NNE
IDEFIX/ARIANE 42P 2.6 14:34:16 10° N 14:39:30 64° WNW 14:44:42 10° SSW
CSL-04 Rocket 4.2 14:36:03 10° N 14:40:50 35° WNW 14:45:34 10° SW
Ariane Rocket 3.9 14:37:28 10° N 14:41:45 28° WNW 14:46:02 10° WSW
SL-12 R/B (Aux Motor) 4.0 14:38:43 10° W 14:42:46 78° NNW 14:44:54 10° ENE
Cosmos 2228 Rocket 3.1 14:38:25 10° SSW 14:42:48 62° W 14:47:12 10° N
Cosmos 1300 3.3 14:41:35 10° S 14:45:20 61° E 14:49:09 10° NNE
Coronas F rocket 2.7 14:45:14 10° NW 14:46:51 16° W 14:48:29 10° SW
Iridium 4 Rocket 3.2 14:44:18 10° N 14:48:36 88° E 14:53:12 10° S
COSMOS 2441 4.3 14:46:49 10° N 14:51:39 80° WNW 14:56:25 10° SSW
AQUARIUS 4.4 14:48:15 10° N 14:52:37 48° WNW 14:56:56 10° SW
Sich 1 4.1 14:51:00 10° NW 14:54:30 24° W 14:57:57 10° SW
Cosmos 1898 Rocket 3.5 14:51:56 10° SSW 14:57:12 75° WNW 15:02:32 10° NNE
Meteor 2-2 Rocket 4.3 14:51:27 10° SSW 14:57:17 74° WNW 15:03:02 10° N
